Location: Ferchesar
(52.6477°N, 12.4298°E)
Time: 20:20:06
(UTC+01:00)

Vanguard 3 - Visible Passes

Search period start: 04 March 2021 00:00
Search period end: 14 March 2021 00:00
Orbit: 508 x 3262 km, 33.4° (Epoch: 04 March)

Date Brightness Start Highest point End Pass type
(mag) Time Alt. Az. Time Alt. Az. Time Alt. Az.
04 Mar 10.1 19:16:19 10° WSW 19:27:00 24° SSW 19:34:25 10° SSE visible
05 Mar 10.3 20:16:35 10° WSW 20:23:34 16° SW 20:29:00 10° S visible
06 Mar 10.3 18:58:12 10° WSW 19:09:45 25° SSW 19:17:54 10° SSE visible
07 Mar 10.5 19:58:43 10° WSW 20:06:17 16° SW 20:12:13 10° S visible
08 Mar 10.5 18:40:05 10° WSW 18:52:21 25° SSW 19:01:13 10° SSE visible
09 Mar 10.7 19:40:53 10° WSW 19:48:52 16° SW 19:55:15 10° SSW visible
10 Mar 10.7 18:22:01 10° WSW 18:34:49 25° SSW 18:44:22 10° SSE visible
11 Mar 11.0 19:23:08 10° WSW 19:31:19 16° SW 19:38:02 10° SSW visible
13 Mar 11.1 19:05:33 10° WSW 19:13:39 15° SW 19:20:32 10° SSW visible
